Weather History for KMWM - August, 2013

Change the Weather History Date:

Friday, August 30, 2013

  Actual Average Record
Temperature  
Mean Temperature 73 °F -  
Max Temperature 82 °F 81 °F 98 °F (2012)
Min Temperature 64 °F 57 °F 44 °F (1988)
Cooling Degree Days 8    
Growing Degree Days 23 (Base 50)    
Moisture  
Dew Point 68 °F    
Average Humidity 78    
Maximum Humidity 94    
Minimum Humidity 54    
Precipitation  
Precipitation 0.00 in - - ()
Sea Level Pressure  
Sea Level Pressure 29.92 in    
Wind  
Wind Speed 6 mph (North)    
Max Wind Speed 14 mph    
Max Gust Speed 17 mph    
Visibility 10 miles    
Events      
Averages and records for this station are not official NWS values.
T = Trace of Precipitation, MM = Missing Value Source: NWS Daily Summary

Daily Weather History Graph

Daily Weather History Graph

Search for Another Location

Airport or City:

Trip Planner

Search our weather history database for the weather conditions in past years. The results will help you decide how hot, cold, wet, or windy it might be!

Date:

Astronomy

Aug. 30, 2013 Rise Set
Actual Time 6:41 AM CDT 7:59 PM CDT
Civil Twilight 6:11 AM CDT 8:28 PM CDT
Nautical Twilight 5:36 AM CDT 9:04 PM CDT
Astronomical Twilight 4:58 AM CDT 9:42 PM CDT
Moon 1:14 AM CDT (8/30) 4:21 PM CDT (8/30)
Length of Visible Light 14h 16m
Length of Day
13h 17m
Waning Crescent, 29% of the Moon is Illuminated
Aug 30
Waning Crescent
Sep 5
New
Sep 12
First Quarter
Sep 19
Full
Sep 26
Last Quarter

Hourly Weather History & Observations

Time (CDT) Temp. Heat Index Dew Point Humidity Pressure Visibility Wind Dir Wind Speed Gust Speed Precip Events Conditions
12:12 AM 77.0 °F - 71.6 °F 83% 29.90 in 10.0 mi Calm Calm - N/A   Clear
12:32 AM 77.0 °F - 71.6 °F 83% 29.91 in 10.0 mi South 4.6 mph - N/A   Clear
12:53 AM 78.8 °F - 71.6 °F 78% 29.90 in 10.0 mi SSW 4.6 mph - N/A   Clear
1:12 AM 77.0 °F - 71.6 °F 83% 29.90 in 10.0 mi SSW 3.5 mph - N/A   Clear
1:32 AM 77.0 °F - 71.6 °F 83% 29.90 in 10.0 mi SSW 4.6 mph - N/A   Clear
1:53 AM 75.2 °F - 71.6 °F 89% 29.92 in 10.0 mi NW 13.8 mph 17.3 mph N/A   Clear
2:12 AM 75.2 °F - 71.6 °F 89% 29.91 in 10.0 mi WSW 4.6 mph - N/A   Clear
2:32 AM 75.2 °F - 71.6 °F 89% 29.91 in 10.0 mi Calm Calm - N/A   Clear
2:52 AM 75.2 °F - 71.6 °F 89% 29.90 in 10.0 mi SSW 3.5 mph - N/A   Clear
3:12 AM 73.4 °F - 71.6 °F 94% 29.90 in 10.0 mi Calm Calm - N/A   Clear
3:33 AM 73.4 °F - 69.8 °F 88% 29.91 in 10.0 mi West 4.6 mph - N/A   Clear
3:52 AM 73.4 °F - 69.8 °F 88% 29.91 in 10.0 mi Calm Calm - N/A   Clear
4:12 AM 73.4 °F - 69.8 °F 88% 29.91 in 10.0 mi West 3.5 mph - N/A   Clear
4:33 AM 73.4 °F - 69.8 °F 88% 29.91 in 10.0 mi WNW 4.6 mph - N/A   Clear
4:52 AM 73.4 °F - 69.8 °F 88% 29.91 in 10.0 mi WNW 5.8 mph - N/A   Clear
5:12 AM 73.4 °F - 71.6 °F 94% 29.91 in 10.0 mi NW 6.9 mph - N/A   Clear
5:33 AM 73.4 °F - 71.6 °F 94% 29.91 in 10.0 mi NNW 9.2 mph - N/A   Clear
5:52 AM 73.4 °F - 69.8 °F 88% 29.91 in 10.0 mi NNW 8.1 mph - N/A   Clear
6:12 AM 73.4 °F - 69.8 °F 88% 29.91 in 10.0 mi NNW 6.9 mph - N/A   Clear
6:33 AM 71.6 °F - 69.8 °F 94% 29.92 in 10.0 mi NNW 9.2 mph - N/A   Clear
6:52 AM 71.6 °F - 69.8 °F 94% 29.92 in 10.0 mi NNW 8.1 mph - N/A   Clear
7:12 AM 71.6 °F - 69.8 °F 94% 29.93 in 10.0 mi NNW 8.1 mph - N/A   Clear
7:32 AM 71.6 °F - 69.8 °F 94% 29.93 in 10.0 mi NNW 6.9 mph - N/A   Clear
7:52 AM 71.6 °F - 69.8 °F 94% 29.93 in 10.0 mi NNW 5.8 mph - N/A   Clear
8:13 AM 73.4 °F - 69.8 °F 88% 29.93 in 10.0 mi NNW 9.2 mph - N/A   Clear
8:32 AM 73.4 °F - 69.8 °F 88% 29.93 in 10.0 mi North 8.1 mph - N/A   Clear
8:52 AM 73.4 °F - 69.8 °F 88% 29.93 in 10.0 mi North 9.2 mph - N/A   Scattered Clouds
9:13 AM 75.2 °F - 69.8 °F 83% 29.94 in 10.0 mi North 6.9 mph - N/A   Scattered Clouds
9:32 AM 77.0 °F - 69.8 °F 78% 29.94 in 10.0 mi North 9.2 mph - N/A   Scattered Clouds
9:52 AM 77.0 °F - 69.8 °F 78% 29.94 in 10.0 mi North 11.5 mph - N/A   Scattered Clouds
10:13 AM 78.8 °F - 69.8 °F 74% 29.94 in 10.0 mi NNW 10.4 mph - N/A   Scattered Clouds
10:32 AM 78.8 °F - 69.8 °F 74% 29.95 in 10.0 mi North 11.5 mph - N/A   Scattered Clouds
10:52 AM 78.8 °F - 69.8 °F 74% 29.95 in 10.0 mi North 11.5 mph 16.1 mph N/A   Scattered Clouds
11:13 AM 78.8 °F - 69.8 °F 74% 29.95 in 10.0 mi North 13.8 mph - N/A   Mostly Cloudy
11:32 AM 78.8 °F - 68.0 °F 69% 29.96 in 10.0 mi North 11.5 mph - N/A   Mostly Cloudy
11:52 AM 78.8 °F - 68.0 °F 69% 29.96 in 10.0 mi North 12.7 mph - N/A   Mostly Cloudy
12:13 PM 78.8 °F - 68.0 °F 69% 29.96 in 10.0 mi North 10.4 mph - N/A   Mostly Cloudy
12:32 PM 78.8 °F - 68.0 °F 69% 29.96 in 10.0 mi North 10.4 mph - N/A   Overcast
12:52 PM 78.8 °F - 68.0 °F 69% 29.96 in 10.0 mi North 12.7 mph - N/A   Overcast
1:13 PM 78.8 °F - 66.2 °F 65% 29.96 in 10.0 mi North 9.2 mph - N/A   Mostly Cloudy
1:32 PM 78.8 °F - 66.2 °F 65% 29.96 in 10.0 mi North 8.1 mph 16.1 mph N/A   Mostly Cloudy
1:53 PM 78.8 °F - 66.2 °F 65% 29.95 in 10.0 mi North 10.4 mph - N/A   Mostly Cloudy
2:12 PM 80.6 °F 82.7 °F 66.2 °F 61% 29.95 in 10.0 mi North 9.2 mph - N/A   Mostly Cloudy
2:32 PM 80.6 °F 82.7 °F 66.2 °F 61% 29.95 in 10.0 mi North 6.9 mph - N/A   Scattered Clouds
2:52 PM 80.6 °F 82.7 °F 66.2 °F 61% 29.95 in 10.0 mi North 6.9 mph - N/A   Scattered Clouds
3:12 PM 80.6 °F 82.7 °F 66.2 °F 61% 29.94 in 10.0 mi North 9.2 mph - N/A   Scattered Clouds
3:32 PM 82.4 °F 84.6 °F 66.2 °F 58% 29.94 in 10.0 mi North 8.1 mph - N/A   Scattered Clouds
3:52 PM 82.4 °F 84.6 °F 66.2 °F 58% 29.94 in 10.0 mi NNE 8.1 mph - N/A   Scattered Clouds
4:13 PM 82.4 °F 84.6 °F 66.2 °F 58% 29.93 in 10.0 mi North 4.6 mph - N/A   Clear
4:32 PM 82.4 °F 84.6 °F 66.2 °F 58% 29.93 in 10.0 mi NNE 8.1 mph - N/A   Clear
4:52 PM 82.4 °F 83.9 °F 64.4 °F 54% 29.92 in 10.0 mi North 9.2 mph - N/A   Clear
5:13 PM 82.4 °F 83.9 °F 64.4 °F 54% 29.92 in 10.0 mi North 6.9 mph - N/A   Clear
5:32 PM 82.4 °F 83.9 °F 64.4 °F 54% 29.92 in 10.0 mi North 9.2 mph - N/A   Clear
5:52 PM 82.4 °F 84.6 °F 66.2 °F 58% 29.92 in 10.0 mi North 6.9 mph - N/A   Clear
6:12 PM 80.6 °F 82.3 °F 64.4 °F 58% 29.92 in 10.0 mi North 8.1 mph - N/A   Clear
6:32 PM 80.6 °F 82.7 °F 66.2 °F 61% 29.92 in 10.0 mi NNE 5.8 mph - N/A   Clear
6:53 PM 78.8 °F - 66.2 °F 65% 29.91 in 10.0 mi NE 4.6 mph - N/A   Clear
7:12 PM 78.8 °F - 66.2 °F 65% 29.91 in 10.0 mi NE 5.8 mph - N/A   Clear
7:32 PM 75.2 °F - 66.2 °F 73% 29.91 in 10.0 mi NE 5.8 mph - N/A   Clear
7:52 PM 73.4 °F - 66.2 °F 78% 29.91 in 10.0 mi NE 4.6 mph - N/A   Clear
8:12 PM 73.4 °F - 66.2 °F 78% 29.91 in 10.0 mi NE 5.8 mph - N/A   Clear
8:32 PM 71.6 °F - 64.4 °F 78% 29.91 in 10.0 mi NNE 4.6 mph - N/A   Clear
8:53 PM 69.8 °F - 64.4 °F 83% 29.91 in 10.0 mi NE 4.6 mph - N/A   Clear
9:12 PM 69.8 °F - 64.4 °F 83% 29.91 in 10.0 mi NE 3.5 mph - N/A   Clear
9:32 PM 69.8 °F - 64.4 °F 83% 29.91 in 10.0 mi Calm Calm - N/A   Clear
9:53 PM 68.0 °F - 64.4 °F 88% 29.92 in 10.0 mi Calm Calm - N/A   Clear
10:12 PM 66.2 °F - 62.6 °F 88% 29.92 in 10.0 mi Calm Calm - N/A   Clear
10:32 PM 64.4 °F - 60.8 °F 88% 29.92 in 10.0 mi Calm Calm - N/A   Clear
10:52 PM 64.4 °F - 62.6 °F 94% 29.92 in 10.0 mi Calm Calm - N/A   Clear
11:12 PM 64.4 °F - 60.8 °F 88% 29.91 in 10.0 mi Calm Calm - N/A   Clear
11:32 PM 64.4 °F - 60.8 °F 88% 29.91 in 10.0 mi Calm Calm - N/A   Clear
11:52 PM 64.4 °F - 60.8 °F 88% 29.91 in 10.0 mi Calm Calm - N/A   Clear